Location: Unspecified
(41.5516°N, 88.1098°W)
Time: 17:26:45
(UTC-05:00)

Resurs 1-4 Rocket - Visible Passes

Search period start: 22 October 2014 00:00
Search period end: 01 November 2014 00:00
Orbit: 801 x 814 km, 98.4° (Epoch: 22 October)

Date Brightness Start Highest point End Pass type
(mag) Time Alt. Az. Time Alt. Az. Time Alt. Az.
22 Oct 4.3 03:51:30 10° NE 03:55:33 22° E 03:57:47 17° SE visible
22 Oct 2.3 05:30:34 10° N 05:35:38 47° WNW 05:38:52 21° SW visible
23 Oct 4.9 03:28:32 10° ENE 03:30:51 13° E 03:32:52 11° ESE visible
23 Oct 1.9 05:05:59 10° N 05:11:18 78° WNW 05:13:56 31° SSW visible
23 Oct 3.9 06:49:00 10° NW 06:50:15 11° WNW 06:51:29 10° WNW visible
24 Oct 2.4 04:41:36 10° NNE 04:46:53 64° ESE 04:49:00 36° S visible
24 Oct 3.5 06:22:47 10° NNW 06:26:12 18° WNW 06:29:36 10° WSW visible
25 Oct 3.3 04:17:26 10° NNE 04:22:22 38° E 04:24:04 30° SE visible
25 Oct 3.0 05:57:37 10° N 06:02:03 28° WNW 06:05:09 16° WSW visible
26 Oct 4.2 03:53:36 10° NE 03:57:46 23° E 03:59:07 21° ESE visible
26 Oct 2.4 05:32:47 10° N 05:37:49 44° WNW 05:40:12 27° SW visible
27 Oct 4.8 03:30:29 10° ENE 03:33:05 14° E 03:34:11 13° ESE visible
27 Oct 1.9 05:08:11 10° N 05:13:29 74° WNW 05:15:15 43° SSW visible
28 Oct 2.3 04:43:47 10° NNE 04:49:05 68° ESE 04:50:18 51° SSE visible
28 Oct 3.5 06:25:06 10° NNW 06:28:21 17° WNW 06:31:23 11° W visible
29 Oct 3.2 04:19:35 10° NNE 04:24:34 40° E 04:25:21 38° ESE visible
29 Oct 3.0 05:59:52 10° N 06:04:13 26° WNW 06:06:26 20° WSW visible
30 Oct 4.0 03:55:42 10° NE 03:59:59 24° E 04:00:24 24° E visible
30 Oct 2.4 05:35:01 10° N 05:39:59 42° WNW 05:41:28 34° WSW visible
31 Oct 4.7 03:32:27 10° ENE 03:35:18 15° E 03:35:26 15° E visible
31 Oct 1.9 05:10:23 10° N 05:15:40 70° WNW 05:16:31 59° SW visible
